{"data":{"norad_id":66391,"epoch":"2026-09-20T14:04:07.810464Z","epoch_age_seconds":85992,"freshness":"FRESH","line1":"1 66391U 25257M   26263.58620151  .00021661  00000+0  65037-3 0  9992","line2":"2 66391  53.1594  33.1190 0001031  89.6953 270.4168 15.34399633 49654","mean_motion":15.34399633,"eccentricity":0.0001031,"inclination_deg":53.1594,"raan_deg":33.119,"arg_perigee_deg":89.6953,"mean_anomaly_deg":270.4168,"bstar":0.00065037,"rev_number":4965,"period_min":93.847780527982,"perigee_km":461.99904026744,"apogee_km":463.40962174989,"semimajor_km":6840.8413310087,"source":"CELESTRAK","updated_at":"2026-09-21T09:00:35.887313Z"}}